Mount Sterling, KY

1:31 PM EDT on July 21, 2017 (GMT -0400)
Mount Sterling-Montgomery County

Weather History for KIOB - November, 2014

Change the Weather History Date:

Sunday, November 23, 2014

  Actual Average Record
Temperature  
Mean Temperature 52 °F -  
Max Temperature 59 °F 54 °F 59 °F (2014)
Min Temperature 44 °F 34 °F 19 °F (2015)
Degree Days  
Heating Degree Days 14    
Growing Degree Days 2 (Base 50)    
Moisture  
Dew Point 45 °F    
Average Humidity 75    
Maximum Humidity 100    
Minimum Humidity 54    
Precipitation  
Precipitation 0.47 in - - ()
Sea Level Pressure  
Sea Level Pressure 29.81 in    
Wind  
Wind Speed 8 mph (South)    
Max Wind Speed 22 mph    
Max Gust Speed 34 mph    
Visibility 9 miles    
Events Rain    
Averages and records for this station are not official NWS values.
T = Trace of Precipitation, MM = Missing Value Source: NWS Daily Summary

Daily Weather History Graph

Daily Weather History Graph

Search for Another Location

Airport or City:

Trip Planner

Search our weather history database for the weather conditions in past years. The results will help you decide how hot, cold, wet, or windy it might be!

Date:

Astronomy

Nov. 23, 2014 Rise Set
Actual Time 7:25 AM EST 5:19 PM EST
Civil Twilight 6:56 AM EST 5:47 PM EST
Nautical Twilight 6:24 AM EST 6:20 PM EST
Astronomical Twilight 5:52 AM EST 6:51 PM EST
Moon 8:20 AM EST (11/23) 6:41 PM EST (11/23)
Length of Visible Light 10h 51m
Length of Day
9h 53m
New Moon, 2% of the Moon is Illuminated
Nov 23
New Moon
Nov 29
First Quarter
Dec 6
Full
Dec 14
Last Quarter
Dec 21
New

Hourly Weather History & Observations

Time (EST) Temp. Windchill Dew Point Humidity Pressure Visibility Wind Dir Wind Speed Gust Speed Precip Events Conditions
12:15 AM 44.6 °F 40.7 °F 32.0 °F 61% 30.12 in 10.0 mi SW 6.9 mph - N/A   Scattered Clouds
12:35 AM 48.2 °F - 32.0 °F 54% 30.12 in 10.0 mi SW 6.9 mph - N/A   Overcast
12:55 AM 50.0 °F - 33.8 °F 54% 30.11 in 10.0 mi SW 6.9 mph - N/A   Overcast
1:15 AM 50.0 °F - 33.8 °F 54% 30.10 in 10.0 mi SW 6.9 mph - N/A   Overcast
1:35 AM 50.0 °F - 33.8 °F 54% 30.10 in 10.0 mi SW 6.9 mph - N/A   Overcast
1:55 AM 50.0 °F - 33.8 °F 54% 30.10 in 10.0 mi SW 5.8 mph - N/A   Overcast
2:15 AM 50.0 °F - 33.8 °F 54% 30.10 in 10.0 mi SSW 4.6 mph - N/A   Overcast
2:35 AM 50.0 °F - 33.8 °F 54% 30.09 in 10.0 mi SW 5.8 mph - N/A   Overcast
2:55 AM 50.0 °F - 35.6 °F 58% 30.09 in 10.0 mi SW 6.9 mph - N/A   Overcast
3:15 AM 50.0 °F - 35.6 °F 58% 30.08 in 10.0 mi SW 6.9 mph - N/A   Overcast
3:35 AM 50.0 °F - 35.6 °F 58% 30.08 in 10.0 mi SSW 6.9 mph - N/A   Overcast
3:55 AM 50.0 °F - 35.6 °F 58% 30.08 in 10.0 mi SSW 5.8 mph - N/A   Overcast
4:15 AM 48.2 °F - 35.6 °F 62% 30.07 in 10.0 mi SSW 6.9 mph - N/A   Mostly Cloudy
4:35 AM 48.2 °F - 35.6 °F 62% 30.07 in 10.0 mi SSW 4.6 mph - N/A   Mostly Cloudy
4:55 AM 50.0 °F - 35.6 °F 58% 30.06 in 10.0 mi SSE 4.6 mph - N/A   Overcast
5:15 AM 50.0 °F - 35.6 °F 58% 30.06 in 10.0 mi SSE 4.6 mph - N/A   Overcast
5:55 AM 46.4 °F 45.2 °F 35.6 °F 66% 30.04 in 10.0 mi SSE 3.5 mph - N/A   Mostly Cloudy
6:15 AM 48.2 °F - 37.4 °F 66% 30.04 in 10.0 mi South 6.9 mph - N/A   Overcast
6:35 AM 50.0 °F - 37.4 °F 62% 30.03 in 10.0 mi South 6.9 mph - N/A   Mostly Cloudy
6:55 AM 50.0 °F - 37.4 °F 62% 30.03 in 10.0 mi South 8.1 mph - N/A   Scattered Clouds
7:15 AM 50.0 °F - 37.4 °F 62% 30.03 in 10.0 mi South 9.2 mph - N/A   Mostly Cloudy
7:35 AM 50.0 °F - 37.4 °F 62% 30.03 in 10.0 mi South 6.9 mph - N/A   Scattered Clouds
7:55 AM 50.0 °F - 37.4 °F 62% 30.03 in 10.0 mi South 4.6 mph - N/A   Mostly Cloudy
8:15 AM 51.8 °F - 37.4 °F 58% 30.03 in 10.0 mi South 6.9 mph - N/A   Mostly Cloudy
8:35 AM 51.8 °F - 37.4 °F 58% 30.01 in 10.0 mi South 10.4 mph - N/A   Mostly Cloudy
8:55 AM 53.6 °F - 37.4 °F 54% 30.00 in 10.0 mi South 10.4 mph - N/A   Mostly Cloudy
9:15 AM 53.6 °F - 39.2 °F 58% 29.99 in 10.0 mi South 9.2 mph - N/A   Mostly Cloudy
9:35 AM 55.4 °F - 39.2 °F 54% 29.98 in 10.0 mi SSE 8.1 mph - N/A   Overcast
9:55 AM 53.6 °F - 41.0 °F 62% 29.97 in 10.0 mi South 8.1 mph - N/A   Overcast
10:15 AM 55.4 °F - 41.0 °F 58% 29.96 in 10.0 mi South 8.1 mph - N/A   Overcast
10:35 AM 57.2 °F - 42.8 °F 59% 29.96 in 10.0 mi South 11.5 mph - N/A Rain Light Rain
10:55 AM 55.4 °F - 44.6 °F 67% 29.95 in 10.0 mi South 5.8 mph - N/A   Overcast
11:15 AM 53.6 °F - 46.4 °F 77% 29.93 in 10.0 mi SSE 10.4 mph - N/A   Overcast
11:35 AM 53.6 °F - 44.6 °F 72% 29.91 in 10.0 mi SSE 10.4 mph - N/A   Overcast
11:55 AM 55.4 °F - 44.6 °F 67% 29.89 in 10.0 mi SSE 9.2 mph - N/A   Overcast
12:15 PM 53.6 °F - 46.4 °F 77% 29.88 in 10.0 mi SSE 9.2 mph - N/A Rain Light Rain
12:35 PM 53.6 °F - 46.4 °F 77% 29.86 in 10.0 mi SSE 8.1 mph - N/A Rain Light Rain
12:55 PM 53.6 °F - 48.2 °F 82% 29.84 in 10.0 mi SSE 6.9 mph - N/A Rain Rain
1:15 PM 55.4 °F - 50.0 °F 82% 29.82 in 10.0 mi SSE 6.9 mph - 0.01 in Rain Light Rain
1:35 PM 55.4 °F - 50.0 °F 82% 29.80 in 10.0 mi SE 6.9 mph - 0.01 in   Overcast
1:55 PM 55.4 °F - 50.0 °F 82% 29.79 in 10.0 mi SE 6.9 mph - 0.01 in Rain Light Rain
2:15 PM 55.4 °F - 50.0 °F 82% 29.76 in 10.0 mi SE 8.1 mph - N/A   Drizzle
2:35 PM 55.4 °F - 50.0 °F 82% 29.75 in 10.0 mi SSE 9.2 mph - N/A Rain Light Rain
2:55 PM 55.4 °F - 51.8 °F 88% 29.74 in 7.0 mi SSE 8.1 mph 19.6 mph 0.06 in Rain Light Rain
3:15 PM 53.6 °F - 51.8 °F 94% 29.72 in 10.0 mi SSE 9.2 mph - 0.02 in Rain Light Rain
3:35 PM 53.6 °F - 51.8 °F 94% 29.70 in 4.0 mi SE 10.4 mph - 0.08 in Rain Rain
3:55 PM 53.6 °F - 51.8 °F 94% 29.66 in 5.0 mi ESE 11.5 mph 17.3 mph 0.10 in Rain Rain
4:15 PM 53.6 °F - 51.8 °F 94% 29.64 in 10.0 mi ESE 12.7 mph 17.3 mph N/A   Overcast
4:35 PM 53.6 °F - 51.8 °F 94% 29.62 in 10.0 mi ESE 12.7 mph 17.3 mph N/A   Overcast
4:55 PM 53.6 °F - 51.8 °F 94% 29.62 in 10.0 mi SE 10.4 mph - 0.01 in Rain Light Rain
5:15 PM 53.6 °F - 51.8 °F 94% 29.61 in 5.0 mi SE 15.0 mph 18.4 mph 0.05 in Rain Rain
5:35 PM 53.6 °F - 51.8 °F 94% 29.58 in 7.0 mi SE 15.0 mph 19.6 mph 0.09 in Rain Rain
5:55 PM 53.6 °F - 51.8 °F 94% 29.56 in 10.0 mi SE 12.7 mph 18.4 mph 0.11 in Rain Light Rain
6:15 PM 53.6 °F - 51.8 °F 94% 29.56 in 10.0 mi SSE 12.7 mph 18.4 mph 0.02 in Rain Light Rain
6:35 PM 53.6 °F - 51.8 °F 94% 29.54 in 7.0 mi SSE 11.5 mph 18.4 mph 0.06 in Rain Rain
6:55 PM 53.6 °F - 53.6 °F 100% 29.54 in 5.0 mi SSE 11.5 mph 17.3 mph 0.14 in Rain Rain
7:15 PM 53.6 °F - 53.6 °F 100% 29.51 in 10.0 mi SE 12.7 mph - 0.03 in Rain Light Rain
7:35 PM 53.6 °F - 53.6 °F 100% 29.49 in 10.0 mi SE 11.5 mph 18.4 mph 0.04 in Rain Light Rain
7:55 PM 53.6 °F - 53.6 °F 100% 29.46 in 10.0 mi SSE 11.5 mph 20.7 mph 0.04 in Rain Light Rain
8:15 PM 55.4 °F - 53.6 °F 94% 29.44 in 10.0 mi SSE 15.0 mph 24.2 mph N/A   Mostly Cloudy
8:35 PM 55.4 °F - 53.6 °F 94% 29.44 in 10.0 mi South 15.0 mph 21.9 mph N/A   Mostly Cloudy
8:55 PM 55.4 °F - 53.6 °F 94% 29.43 in 10.0 mi South 11.5 mph 23.0 mph N/A   Overcast
9:15 PM 59.0 °F - 53.6 °F 82% 29.43 in 10.0 mi South 15.0 mph 27.6 mph N/A   Overcast
9:35 PM 57.2 °F - 53.6 °F 88% 29.43 in 10.0 mi South 13.8 mph 21.9 mph N/A   Overcast
9:55 PM 59.0 °F - 53.6 °F 82% 29.42 in 10.0 mi SSW 16.1 mph 26.5 mph N/A   Overcast
10:15 PM 59.0 °F - 53.6 °F 82% 29.41 in 10.0 mi SSW 12.7 mph 21.9 mph N/A   Overcast
10:35 PM 57.2 °F - 53.6 °F 88% 29.41 in 10.0 mi SSW 12.7 mph - N/A   Drizzle
10:55 PM 57.2 °F - 55.4 °F 94% 29.40 in 5.0 mi SSW 16.1 mph 21.9 mph N/A Rain Rain
11:15 PM 57.2 °F - 55.4 °F 94% 29.39 in 10.0 mi SSW 12.7 mph - N/A   Light Drizzle
11:35 PM 57.2 °F - 55.4 °F 94% 29.39 in 7.0 mi SW 21.9 mph 34.5 mph N/A Rain Rain
11:55 PM 57.2 °F - 55.4 °F 94% 29.39 in 7.0 mi SSW 21.9 mph 31.1 mph N/A Rain Light Rain